Location: Crayja
(6.2254°N, 10.6273°W)
Time: 08:17:26
(UTC+00:00)

Hubble Space Telescope - Pass Details

Date: 17 February 2020
Orbit: 536 x 540 km, 28.5° (Epoch: 08 April)

Event Time Altitude Azimuth Distance (km) Brightness Sun altitude
Exits shadow 05:47:08 31° 233° (SW) 952 1.7 -18.2°
Maximum altitude 05:47:51 33° 211° (SSW) 904 1.7 -18.0°
Drops below altitude 10° 05:51:35 10° 146° (SE) 1,776 4.0 -17.1°
Sets 05:54:00 0° 136° (SE) 2,666 5.3 -16.6°
